Welcome to the New NWS' Forecast!
Most changes are behind the scenes, but click here for differences you might notice.

Regional Weather Roundup (RWR)

Issued by National Weather Service (NWS)

                            
156 
ASUS46 KSEW 152310
RWRWA 

WASHINGTON REGIONAL WEATHER ROUNDUP
NATIONAL WEATHER SERVICE SEATTLE WA
400 PM PDT SUN JUL 15 2018

NOTE:"FAIR" INDICATES FEW OR NO CLOUDS BELOW 12,000 FEET WITH NO 
SIGNIFICANT WEATHER AND/OR OBSTRUCTIONS TO VISIBILITY.

WAZ507-509-555>559-160000-
SEATTLE, TACOMA, EVERETT, AND VICINITY
  
CITY           SKY/WX    TMP DP  RH WIND       PRES   REMARKS
EVERETT        SUNNY     85  49  28 VRB7      30.00F                  
BOEING FIELD   SUNNY     88  49  25 W9        29.95F                  
RENTON         SUNNY     91  54  28 NW12      29.94F                  
SEATAC AIRPORT MOSUNNY   92  51  24 N10       29.97F                  
JBLM-MCCHORD   SUNNY     90  56  31 NE12      29.96F                  
PUYALLUP       FAIR      91  52  25 VRB5      29.98F                  
BREMERTON      NOT AVBL                                               
JBLM-FT LEWIS  SUNNY     91  58  32 N7        29.95F                  
TACOMA NARROWS SUNNY     86  50  28 N12       29.96F                  
$$
 
WAZ001-503-506-510-514-515-160000-
NORTH INTERIOR
  
CITY           SKY/WX    TMP DP  RH WIND       PRES   REMARKS
BELLINGHAM     SUNNY     83  50  31 VRB6      29.98F                  
FRIDAY HARBOR  SUNNY     87  42  20 N8        30.00F                  
EASTSOUND      SUNNY     73  54  49 N5        29.99F                  
PORT ANGELES   SUNNY     81  47  30 NE6       30.01F                  
EDIZ HOOK      FAIR      76  50  40 CALM      30.00S                  
PORT TOWNSEND  FAIR      86  46  25 VRB6      29.99S                  
NAS WHIDBEY    MOSUNNY   77  51  40 W7        30.03F                  
ARLINGTON      SUNNY     88  58  36 NW12      29.97F                  
BURLINGTON     SUNNY     81  55  41 W9        29.98F                  
$$
 
WAZ020-022-039-040-504-511-512-160000-
SOUTHWEST INTERIOR
  
CITY           SKY/WX    TMP DP  RH WIND       PRES   REMARKS
SHELTON        SUNNY     95  51  22 E6        29.93F HX  92           
OLYMPIA        SUNNY     91  50  24 VRB3      29.95F                  
CHEHALIS       FAIR      95  55  26 VRB5G12   29.94F HX  93           
KELSO          SUNNY     97  54  23 N8        29.91F HX  95           
VANCOUVER      MOSUNNY   96  49  20 VRB3      29.88F HX  93           
SCAPPOOSE, OR  SUNNY     99  50  19 NE9       29.87F HX  96           
PORTLAND, OR   MOSUNNY   97  45  16 NW7       29.89F HX  93           
$$
 
WAZ021-516-517-160000-
WASHINGTON COAST
  
CITY           SKY/WX    TMP DP  RH WIND       PRES   REMARKS
FORKS          SUNNY     82  48  30 NW9G20    29.99F                  
HOQUIAM        SUNNY     74  59  59 SW16      29.98F                  
ASTORIA, OR    SUNNY     77  58  51 W12       29.97S                  
$$
 
WAZ019-023-024-040-567>569-160000-
CASCADE MOUNTAINS AND COLUMBIA GORGE
  
CITY           SKY/WX    TMP DP  RH WIND       PRES   REMARKS
STAMPEDE PASS  NOT AVBL                                               
TROUTDALE, OR  MOSUNNY   98  48  18 VRB6      29.88F HX  94           
HOOD RIVER, OR PTCLDY    99  39  12 NE3       29.90F HX  94           
THE DALLES, OR MOSUNNY  103  35   9 NE12      29.86F HX  97           
$$

WAZ026-027-041>044-520-521-160000-
EAST SLOPES
  
CITY           SKY/WX    TMP DP  RH WIND       PRES   REMARKS
OMAK           SUNNY     95  37  13 SW7       29.96F HX  90           
WENATCHEE      SUNNY     95  34  11 S8        29.94F HX  90           
ELLENSBURG     SUNNY     97  38  13 E6        29.98F HX  92           
YAKIMA         SUNNY     95  36  12 VRB6      29.94F HX  90           
SUNNYSIDE ARPT CLEAR     94  49  21 E3        29.93F HX  91           
YAKIMA TC        N/A     97  34  11 SW6       29.94F HX  91           
$$

WAZ028-034-035-160000-
COLUMBIA BASIN
  
CITY           SKY/WX    TMP DP  RH WIND       PRES   REMARKS
EPHRATA        SUNNY     95  31  10 S6        29.95F                  
MOSES LAKE     SUNNY     97  31   9 SW8       29.96F HX  91           
PASCO          PTSUNNY   96  39  13 NW6       29.91F HX  91           
RICHLAND ARPT  MOCLDY    99  33   9 E5        29.91F HX  93           
HERMISTON, OR  PTSUNNY  102  24   6 NE7       29.91F HX  95           
$$

WAZ036>038-160000-
NORTHEAST WASHINGTON
  
CITY           SKY/WX    TMP DP  RH WIND       PRES   REMARKS
SPOKANE GEIGER MOSUNNY   90  26  10 NW9       30.03F                  
SPOKANE FELTS  SUNNY     91  28  10 SW6       30.02F                  
FAIRCHILD AFB  SUNNY     89  29  12 W10       30.04F                  
COEURDALENE,ID SUNNY     89  34  14 NW6       30.04F                  
DEER PARK      SUNNY     91  24   9 SW7       30.03F                  
$$

WAZ029>033-160000-
SOUTHEAST WASHINGTON
  
CITY           SKY/WX    TMP DP  RH WIND       PRES   REMARKS
PULLMAN        MOSUNNY   87  29  12 SW3       30.06F                  
LEWISTON, ID   PTSUNNY   95  29   9 N7        29.97F                  
WALLA WALLA    PTSUNNY   97  34  11 SW8       29.94F HX  91           
PENDLETON, OR  CLOUDY    95  26   8 VRB5      29.95F                  
$$